GW7345 Weather Reports


Display with metric or nautical units.
time (UTC)temp
F
wind
direction
speed
MPH
gust
MPH
rain 1hr
in
rain 24hr
in
rain mn
in
humidity
%
barometer
mb
20260505032016 64 179 2.0 6.0 0.00 0.00 0.00 54 1015.5
20260505031536 64 186 2.0 5.0 0.00 0.00 0.00 53 1015.5
20260505031018 65 183 2.0 5.0 0.00 0.00 0.00 53 1015.5
20260505030516 65 179 2.0 6.0 0.00 0.00 0.00 52 1015.5
20260505030016 65 182 3.0 6.0 0.00 0.00 0.00 52 1015.5
20260505025516 65 181 2.0 6.0 0.00 0.00 0.00 52 1015.5
20260505025016 65 180 2.0 5.0 0.00 0.00 0.00 52 1015.5
20260505024517 65 177 3.0 6.0 0.00 0.00 0.00 51 1015.5
20260505024016 65 180 2.0 6.0 0.00 0.00 0.00 51 1015.4
20260505023516 65 182 2.0 4.0 0.00 0.00 0.00 51 1015.4
20260505023017 66 185 2.0 4.0 0.00 0.00 0.00 50 1015.4
20260505022516 66 187 3.0 5.0 0.00 0.00 0.00 50 1015.3
20260505022017 66 188 3.0 5.0 0.00 0.00 0.00 49 1015.3
20260505021517 66 182 3.0 6.0 0.00 0.00 0.00 49 1015.2
20260505021017 66 181 2.0 5.0 0.00 0.00 0.00 48 1015.2
20260505020517 67 186 2.0 5.0 0.00 0.00 0.00 48 1015.2
20260505020017 67 182 3.0 5.0 0.00 0.00 0.00 47 1015.2
20260505015517 67 190 3.0 5.0 0.00 0.00 0.00 46 1015.1
20260505015017 66 185 3.0 6.0 0.00 0.00 0.00 46 1015.0
20260505014537 66 183 2.0 5.0 0.00 0.00 0.00 45 1015.0
20260505014017 66 184 3.0 6.0 0.00 0.00 0.00 44 1015.0
20260505013517 65 183 1.0 4.0 0.00 0.00 0.00 44 1014.9
20260505013017 66 199 0.0 3.0 0.00 0.00 0.00 43 1014.8
20260505012517 66 185 1.0 3.0 0.00 0.00 0.00 42 1014.7
20260505012018 66 188 1.0 3.0 0.00 0.00 0.00 43 1014.7
20260505011517 65 186 1.0 4.0 0.00 0.00 0.00 43 1014.6
20260505011017 65 176 0.0 4.0 0.00 0.00 0.00 45 1014.6
20260505010537 66 175 0.0 2.0 0.00 0.00 0.00 44 1014.5
20260505010017 66 188 0.0 2.0 0.00 0.00 0.00 44 1014.4
20260505005518 67 180 0.0 2.0 0.00 0.00 0.00 43 1014.4
20260505005018 68 189 1.0 3.0 0.00 0.00 0.00 42 1014.4
20260505004517 68 192 1.0 3.0 0.00 0.00 0.00 41 1014.3
20260505004018 69 195 1.0 3.0 0.00 0.00 0.00 40 1014.2
20260505003538 70 206 1.0 3.0 0.00 0.00 0.00 39 1014.2
20260505003015 71 199 1.0 3.0 0.00 0.00 0.00 38 1014.1
20260505002518 71 207 1.0 3.0 0.00 0.00 0.00 37 1014.1
20260505002015 72 185 2.0 7.0 0.00 0.00 0.00 37 1014.1
20260505001515 72 186 3.0 5.0 0.00 0.00 0.00 37 1014.1
20260505001016 72 186 2.0 5.0 0.00 0.00 0.00 36 1014.2
20260505000516 73 185 3.0 5.0 0.00 0.00 0.00 36 1014.1
20260505000016 73 189 2.0 7.0 0.00 0.00 0.00 36 1014.0
20260504235535 73 183 3.0 7.0 0.00 0.00 0.00 36 1014.0
20260504235016 74 186 3.0 7.0 0.00 0.00 0.00 36 1013.9
20260504234516 74 185 4.0 9.0 0.00 0.00 0.00 36 1013.9
20260504234036 74 186 3.0 6.0 0.00 0.00 0.00 36 1013.8
20260504233516 75 191 3.0 6.0 0.00 0.00 0.00 36 1013.7
20260504233016 75 178 5.0 11.0 0.00 0.00 0.00 35 1013.7
20260504232516 75 194 3.0 10.0 0.00 0.00 0.00 36 1013.6
20260504232017 76 186 4.0 10.0 0.00 0.00 0.00 37 1013.6
20260504231516 76 187 3.0 7.0 0.00 0.00 0.00 37 1013.6
20260504231016 77 196 4.0 8.0 0.00 0.00 0.00 36 1013.6
20260504230516 77 200 3.0 7.0 0.00 0.00 0.00 35 1013.6
20260504230017 77 194 5.0 11.0 0.00 0.00 0.00 34 1013.5
20260504225517 78 196 3.0 6.0 0.00 0.00 0.00 33 1013.5
20260504225017 78 195 4.0 8.0 0.00 0.00 0.00 32 1013.5
20260504224518 79 189 3.0 9.0 0.00 0.00 0.00 32 1013.5
20260504224016 79 191 4.0 10.0 0.00 0.00 0.00 31 1013.5
20260504223517 79 193 3.0 7.0 0.00 0.00 0.00 32 1013.5
20260504223017 79 186 5.0 9.0 0.00 0.00 0.00 32 1013.6
20260504222517 79 179 5.0 9.0 0.00 0.00 0.00 33 1013.6
20260504222017 80 190 5.0 9.0 0.00 0.00 0.00 33 1013.6
20260504221538 80 184 4.0 9.0 0.00 0.00 0.00 33 1013.6
20260504221017 80 181 4.0 11.0 0.00 0.00 0.00 31 1013.6
20260504220517 80 187 3.0 7.0 0.00 0.00 0.00 32 1013.6
20260504220017 80 193 5.0 8.0 0.00 0.00 0.00 32 1013.6
20260504215517 80 183 5.0 10.0 0.00 0.00 0.00 31 1013.6
20260504215018 80 186 5.0 11.0 0.00 0.00 0.00 30 1013.6
20260504214518 81 193 4.0 11.0 0.00 0.00 0.00 30 1013.6
20260504214018 81 212 2.0 7.0 0.00 0.00 0.00 30 1013.6
20260504213518 80 191 3.0 7.0 0.00 0.00 0.00 30 1013.6
20260504213018 80 184 4.0 9.0 0.00 0.00 0.00 30 1013.7
20260504212537 80 182 5.0 12.0 0.00 0.00 0.00 30 1013.7
20260504212018 80 191 5.0 8.0 0.00 0.00 0.00 29 1013.6
20260504211537 80 185 5.0 10.0 0.00 0.00 0.00 30 1013.6
20260504211035 80 182 5.0 10.0 0.00 0.00 0.00 30 1013.6
20260504210515 80 185 5.0 11.0 0.00 0.00 0.00 30 1013.7
20260504210020 80 185 4.0 10.0 0.00 0.00 0.00 29 1013.7
20260504205515 80 194 4.0 11.0 0.00 0.00 0.00 29 1013.7
20260504205016 80 189 4.0 9.0 0.00 0.00 0.00 31 1013.8
20260504204516 80 192 4.0 11.0 0.00 0.00 0.00 32 1013.8
20260504204016 80 187 4.0 10.0 0.00 0.00 0.00 32 1014.0
20260504203516 80 209 3.0 7.0 0.00 0.00 0.00 32 1014.0
20260504203016 80 195 3.0 9.0 0.00 0.00 0.00 31 1014.1
20260504202517 80 194 4.0 8.0 0.00 0.00 0.00 31 1014.2
20260504202016 80 193 4.0 12.0 0.00 0.00 0.00 31 1014.2
20260504201516 81 192 3.0 9.0 0.00 0.00 0.00 32 1014.2
20260504201016 80 195 3.0 6.0 0.00 0.00 0.00 33 1014.2
20260504200516 80 188 4.0 10.0 0.00 0.00 0.00 31 1014.3
20260504200016 80 235 2.0 4.0 0.00 0.00 0.00 31 1014.3
20260504195516 79 194 4.0 9.0 0.00 0.00 0.00 31 1014.3
20260504195016 79 240 4.0 10.0 0.00 0.00 0.00 30 1014.3
20260504194516 79 205 4.0 8.0 0.00 0.00 0.00 30 1014.4
20260504194018 79 196 4.0 8.0 0.00 0.00 0.00 31 1014.4
20260504193517 79 186 3.0 9.0 0.00 0.00 0.00 32 1014.5
20260504193017 79 191 3.0 8.0 0.00 0.00 0.00 32 1014.5
20260504192516 78 277 2.0 9.0 0.00 0.00 0.00 32 1014.6
20260504192017 78 198 4.0 8.0 0.00 0.00 0.00 34 1014.7
20260504191517 78 196 4.0 12.0 0.00 0.00 0.00 34 1014.8
20260504191017 78 199 3.0 9.0 0.00 0.00 0.00 34 1014.9
20260504190519 78 201 3.0 7.0 0.00 0.00 0.00 34 1015.0
20260504190017 78 193 4.0 9.0 0.00 0.00 0.00 33 1015.0
20260504185517 79 189 3.0 11.0 0.00 0.00 0.00 33 1015.1
20260504185017 79 242 2.0 6.0 0.00 0.00 0.00 34 1015.1
20260504184517 78 187 2.0 7.0 0.00 0.00 0.00 35 1015.2
20260504184017 78 196 3.0 8.0 0.00 0.00 0.00 34 1015.3
20260504183518 78 275 3.0 5.0 0.00 0.00 0.00 34 1015.3
20260504183037 78 214 2.0 7.0 0.00 0.00 0.00 33 1015.3
20260504182518 78 227 2.0 8.0 0.00 0.00 0.00 35 1015.4
20260504182018 78 184 2.0 7.0 0.00 0.00 0.00 34 1015.5
20260504181518 77 275 1.0 6.0 0.00 0.00 0.00 35 1015.6
20260504181038 77 215 3.0 8.0 0.00 0.00 0.00 34 1015.6
20260504180518 77 208 2.0 9.0 0.00 0.00 0.00 35 1015.7
20260504180015 77 234 2.0 10.0 0.00 0.00 0.00 35 1015.7
20260504175538 77 236 2.0 5.0 0.00 0.00 0.00 35 1015.7
20260504175038 76 188 2.0 6.0 0.00 0.00 0.00 35 1015.8
20260504174535 75 197 2.0 9.0 0.00 0.00 0.00 35 1015.8
20260504174015 75 189 4.0 7.0 0.00 0.00 0.00 36 1015.9
20260504173521 75 182 4.0 9.0 0.00 0.00 0.00 36 1015.9
20260504173018 75 223 3.0 8.0 0.00 0.00 0.00 36 1015.9
20260504172516 75 185 4.0 8.0 0.00 0.00 0.00 36 1015.9
20260504172016 75 191 4.0 7.0 0.00 0.00 0.00 36 1015.9
20260504171516 75 182 2.0 9.0 0.00 0.00 0.00 37 1016.0
20260504171016 75 203 2.0 7.0 0.00 0.00 0.00 38 1016.1
20260504170516 74 246 1.0 3.0 0.00 0.00 0.00 38 1016.2
20260504151025 70 276 2.0 5.0 0.00 0.00 0.00 45 1017.3
20260504150518 69 198 1.0 4.0 0.00 0.00 0.00 47 1017.3
20260504141018 65 198 1.0 5.0 0.00 0.00 0.00 58 1017.3
20260504140518 65 176 3.0 5.0 0.00 0.00 0.00 59 1017.3
20260504130536 58 288 1.0 4.0 0.00 0.00 0.00 70 1017.3
20260504110521 48 0.0 0.0 0.00 0.00 0.00 91 1017.0
20260504100541 48 179 0.0 2.0 0.00 0.00 0.00 88 1016.9
20260504081523 45 0.0 0.0 0.00 0.00 0.00 91 1016.6
20260504081023 45 0.0 0.0 0.00 0.00 0.00 91 1016.5
20260504080523 45 0.0 0.0 0.00 0.00 0.00 90 1016.5
20260504050517 47 0.0 0.0 0.00 0.00 0.00 85 1017.1
20260504045517 48 0.0 0.0 0.00 0.00 0.00 84 1017.1
20260504045018 48 0.0 0.0 0.00 0.00 0.00 84 1017.1
20260504044518 48 0.0 0.0 0.00 0.00 0.00 84 1017.1
20260504044017 48 0.0 0.0 0.00 0.00 0.00 84 1017.1
20260504043518 48 0.0 0.0 0.00 0.00 0.00 84 1017.1
20260504043018 48 169 0.0 1.0 0.00 0.00 0.00 83 1017.1
20260504042518 48 0.0 0.0 0.00 0.00 0.00 83 1017.1
20260504042018 48 0.0 0.0 0.00 0.00 0.00 83 1017.1
20260504041515 49 176 0.0 1.0 0.00 0.00 0.00 82 1017.2
20260504041015 49 0.0 0.0 0.00 0.00 0.00 81 1017.2
20260504040535 49 164 0.0 2.0 0.00 0.00 0.00 81 1017.2
20260504040015 49 174 0.0 1.0 0.00 0.00 0.00 79 1017.2
20260504035517 49 92 0.0 0.0 0.00 0.00 0.00 78 1017.2
20260504035015 49 99 0.0 0.0 0.00 0.00 0.00 78 1017.2
20260504034515 50 0.0 0.0 0.00 0.00 0.00 78 1017.2
20260504034015 50 165 0.0 1.0 0.00 0.00 0.00 78 1017.2
20260504033536 50 0.0 0.0 0.00 0.00 0.00 77 1017.3
20260504033036 50 0.0 0.0 0.00 0.00 0.00 76 1017.3
20260504032516 51 0.0 0.0 0.00 0.00 0.00 75 1017.2